Regional Weather Roundup
Issued by NWS Upton, NY

Home | Current Version | Previous Version | Text Only | Print | Product List | Glossary On
Versions: 1 2 3 4 5 6 7 8 9 10 11 12 13 14 15 16 17 18 19 20 21 22 23 24 25 26 27 28 29 30 31 32 33 34 35 36 37 38 39 40 41 42 43 44 45 46 47 48 49 50
000
ASUS41 KOKX 271205
RWROKX

REGIONAL WEATHER ROUNDUP
NATIONAL WEATHER SERVICE NEW YORK NY
800 AM EDT WED AUG 27 2014

NOTE: "FAIR" INDICATES FEW OR NO CLOUDS BELOW 12,000 FEET WITH NO
SIGNIFICANT WEATHER AND/OR OBSTRUCTIONS TO VISIBILITY.

NYZ071-072-176-178-NJZ106-104-271300-
NEW YORK CITY METRO AREA


CITY           SKY/WX    TMP DP  RH WIND       PRES   REMARKS
CENTRAL PARK   SUNNY     74  62  66 CALM      30.07R
LAGUARDIA APRT MOSUNNY   75  63  66 SW3       30.04R
KENNEDY INTL   MOSUNNY   74  65  73 SW5       30.06R
NEWARK/LIBERTY MOSUNNY   72  64  76 SW5       30.05R
BRNX BOT. GARD   N/A     75  64  69 CALM      30.04F
TETERBORO      SUNNY     72  63  73 S3        30.04R
$$

NYZ177-179-078>081-271300-
LONG ISLAND NEW YORK

CITY           SKY/WX    TMP DP  RH WIND       PRES   REMARKS
FARMINGDALE    SUNNY     70  63  78 SW6       30.06R
ISLIP          MOSUNNY   72  63  73 S5        30.04R
SHIRLEY        SUNNY     72  66  81 S7        30.06R
WESTHAMPTON    SUNNY     70  64  81 S6        30.07R
MONTAUK POINT    N/A     71  68  90 VRB6      30.06R
$$

NYZ052-065-067-271300-
HUDSON VALLEY

CITY           SKY/WX    TMP DP  RH WIND       PRES   REMARKS
WHITE PLAINS   SUNNY     71  64  78 W3        30.05R
NEWBURGH       SUNNY     68  64  88 W7        30.06R
MONTGOMERY     PTSUNNY   67  63  87 S6        30.04S
POUGHKEEPSIE   SUNNY     71  64  78 VRB3      30.01F
ALBANY         MOSUNNY   70  63  78 S6        30.01S
$$

NJZ001-105-106-008-010-013-015-019>022-104-271300-
NEW JERSEY

CITY           SKY/WX    TMP DP  RH WIND       PRES   REMARKS
NEWARK/LIBERTY MOSUNNY   72  64  76 SW5       30.05R
TETERBORO      SUNNY     72  63  73 S3        30.04R
CALDWELL       SUNNY     69  62  78 VRB3      30.05R
MORRISTOWN     SUNNY     66  64  94 CALM      30.06R
SOMERVILLE     SUNNY     65  62  90 CALM      30.04S
LINDEN         FAIR      74  67  78 CALM      30.07R
SUSSEX         SUNNY     67  63  87 VRB3      30.06S
ANDOVER          N/A     65  64  97 CALM      30.07S
TRENTON        SUNNY     66  63  90 SW5       30.06R
MILLVILLE      SUNNY     65  62  90 CALM      30.08S
ATLANTIC CITY  SUNNY     67  64  90 CALM      30.08S
WRIGHTSTOWN    SUNNY     68  66  94 CALM      30.05R
TOMS RIVER     SUNNY     64  63  94 CALM      30.09R
BELMAR         SUNNY     66  61  82 S8        30.07R
$$

PAZ047>061-062-071-271300-
EASTERN PENNSYLVANIA

CITY           SKY/WX    TMP DP  RH WIND       PRES   REMARKS
PHILADELPHIA   MOSUNNY   70  63  78 S5        30.07S
ALLENTOWN      SUNNY     66  62  87 SW3       30.07R
SCRANTON       CLOUDY    67  60  78 CALM      30.07S
$$

CTZ002-004>006-009-010-012-RIZ004-006-007-MAZ004-011-015-271300-
SOUTHERN NEW ENGLAND
 IN CT

CITY           SKY/WX    TMP DP  RH WIND       PRES   REMARKS
BRADLEY INTL   PTSUNNY   68  63  84 S5        30.01S
HARTFORD       SUNNY     69  63  81 S6        30.02S
DANBURY        SUNNY     69  63  81 W7        30.05S
WTRBRY/OXFORD  MOSUNNY   66  61  82 CALM      30.07R
BRIDGEPORT     SUNNY     72  64  76 SW6       30.03S
MERIDEN        SUNNY     67  63  87 S5        30.03S
NEW HAVEN      MOSUNNY   73  64  73 W5        30.04R
CHESTER        FAIR      70  64  83 SW3       30.05R
GROTON         SUNNY     68  67  96 S5        30.04R
WILLIMANTIC    SUNNY     62  60  93 CALM      30.04S

 IN RI

CITY           SKY/WX    TMP DP  RH WIND       PRES   REMARKS
PROVIDENCE     MOSUNNY   70  61  73 SW5       30.03R
BLOCK ISLAND   SUNNY     70  64  83 S14       30.06R
WESTERLY       SUNNY     70  66  87 S6        30.05R

 IN MA

CITY           SKY/WX    TMP DP  RH WIND       PRES   REMARKS
BOSTON         PTSUNNY   71  60  68 SW12      29.99S
WORCESTER      SUNNY     68  61  78 W10       30.03R
WESTFIELD      SUNNY     67  64  90 CALM      30.01S
PROVINCETOWN     N/A    N/A N/A N/A MISG        N/A
NANTUCKET      FOG       67  66  97 S13       30.05F VSB 1/2
$$

ANZ330-335-338-340-345-350-353-355-271300-
COASTAL MARINE OBSERVATIONS


STATION/POSITION TIME  SKY/WX   TEMP    WIND        PRES    VSBY  WAVE
                                AIR SEA DIR/SP/G                  HT/PER
                 (UTC)          (F)     (DEG/KT/KT) (MB)    (MI)  (FT/S)
NY HARB ENTRANCE NOT AVBL
4S FIRE IS       NOT AVBL
23SW MTP         1200                                 N/A           3/ 9
HUDSON CANYON    1200            73 72   CALM  /  2 1018.1          4/13
EXECUTION ROCKS  1200            82 74  210/  6/  6   N/A
WESTERN LI SOUND 1200            72     200/  4/  6   N/A           0
CENTRAL LI SOUND 1100            72 73  210/  6/  6   N/A           1
EASTERN LI SOUND 1100            70 69  200/  6/  8   N/A
ROBBINS REEF     1200            71     260/  4/  5   N/A
$$


>>>>>>>>>>>>>>>>>>>>>>>>>>>> KEY <<<<<<<<<<<<<<<<<<<<<<<<<<<
>                                                          <
>     SKY/WX - SKY CONDITION/PRESENT WEATHER               <
>     TMP    - TEMPERATURE IN FAHRENHEIT                   <
>     DP     - DEWPOINT IN FAHRENHEIT                      <
>     RH     - RELATIVE HUMIDITY IN PERCENT                <
>     WIND   - DIRECTION AND SPEED IN MPH                  <
>     PRES   - MEAN SEA LEVEL PRESSURE IN INCHES OF HG     <
>     WCI    - WIND CHILL INDEX                            <
>     VSB    - VISIBILITY IN MILES                         <
>     HX     - HEAT INDEX                                  <
>     TC     - TEMPERATURE IN CELSIUS                      <
>     VRB    - VARIABLE WIND DIRECTION                     <
>                                                          <
>>>>>>>>>>>>>>>>>>>>>>>>>>>> KEY <<<<<<<<<<<<<<<<<<<<<<<<<<<




USA.gov is the U.S. government's official web portal to all federal, state and local government web resources and services.